Regional Weather Roundup
Issued by NWS

Home | Current Version | Previous Version | Text Only | Print | Product List | Glossary Off
Versions: 1 2 3 4 5 6 7 8 9 10 11 12 13 14 15 16 17 18 19 20 21 22 23 24 25 26 27

000
ASUS45 KCYS 020610
RWRWY

WYOMING REGIONAL WEATHER ROUNDUP
NATIONAL WEATHER SERVICE CHEYENNE WY
1200 AM MDT MON MAY 02 2016

NOTE:  "FAIR" INDICATES FEW OR NO CLOUDS BELOW 12,000 FEET
WITH NO SIGNIFICANT WEATHER AND/OR OBSTRUCTIONS TO VISIBILITY.

WYZ001-020700-
YELLOWSTONE NATIONAL PARK

CITY           SKY/WX    TMP DP  RH WIND       PRES   REMARKS
LK YELLOWSTONE   N/A     26  19  74 CALM      30.29S
6HR MIN TEMP:  26; 6HR MAX TEMP:  46;

W YELLOWSTONE  NOT AVBL

$$
WYZ002>013-054>058-071-098>099-020700-
NORTHERN WYOMING

CITY           SKY/WX    TMP DP  RH WIND       PRES   REMARKS
JACKSON        FAIR      37  23  56 N13       30.24R WCI  29
CODY           FAIR      41  28  60 W5        30.24F
GREYBULL       FAIR      45  28  51 E6        30.22S
6HR MIN TEMP:  44; 6HR MAX TEMP:  61;

WORLAND        FAIR      40  34  79 S9        30.23F WCI  34
6HR MIN TEMP:  39; 6HR MAX TEMP:  57;

SHERIDAN       FAIR      38  31  76 S6        30.22F WCI  33
6HR MIN TEMP:  36; 6HR MAX TEMP:  60;

BUFFALO          N/A    N/A N/A N/A MISG      30.25F
GILLETTE       FAIR      35  29  78 S5        30.24S WCI  31
6HR MIN TEMP:  31; 6HR MAX TEMP:  55;

HULETT         FAIR      36  30  80 S8        30.24F WCI  29
NEWCASTLE      FAIR      37  30  75 CALM      30.26F

$$
WYZ014>020-022>026-101>103-020700-
CENTRAL WYOMING

CITY           SKY/WX    TMP DP  RH WIND       PRES   REMARKS
BIG PINEY      FAIR      26  18  71 NW7       30.27S WCI  18
6HR MIN TEMP:  26; 6HR MAX TEMP:  53;

PINEDALE       FAIR      27  19  74 NW5       30.28S WCI  21
DUBOIS         NOT AVBL
LANDER         FAIR      37  25  61 S7        30.27S WCI  32
6HR MIN TEMP:  36; 6HR MAX TEMP:  49;

RIVERTON       FAIR      40  28  62 SW6       30.29R
6HR MIN TEMP:  39; 6HR MAX TEMP:  52;

CASPER         FAIR      33  27  78 W9        30.26F WCI  25
6HR MIN TEMP:  30; 6HR MAX TEMP:  50;

DOUGLAS        FAIR      32  27  81 SW3       30.27F
6HR MIN TEMP:  30; 6HR MAX TEMP:  49;


$$
WYZ021-027>030-104>119-020700-
SOUTHERN WYOMING

CITY           SKY/WX    TMP DP  RH WIND       PRES   REMARKS
EVANSTON       FAIR      34  22  61 E14       30.23R WCI  25
6HR MIN TEMP:  34; 6HR MAX TEMP:  44;

KEMMERER         N/A     32  25  74 E10       30.26S WCI  24
FORT BRIDGER   CLEAR     32  28  86 SE7       30.28S WCI  26
ROCK SPRINGS   FAIR      33  24  69 E14       30.25F WCI  23
6HR MIN TEMP:  33; 6HR MAX TEMP:  45;

DIXON          FAIR      35  19  52 E8        30.20S WCI  28
RAWLINS        FAIR      29  21  72 NE13      30.27S WCI  19
6HR MIN TEMP:  27; 6HR MAX TEMP:  42;

SARATOGA       FAIR      28  21  74 SE10      30.26S WCI  19
LARAMIE        FAIR      23  18  81 CALM      30.27F
6HR MIN TEMP:  20; 6HR MAX TEMP:  33;

CHEYENNE       FAIR      28  21  75 W12       30.27F WCI  18
6HR MIN TEMP:  28; 6HR MAX TEMP:  39;

TORRINGTON     FAIR      34  30  85 W5        30.26S WCI  30
6HR MIN TEMP:  34; 6HR MAX TEMP:  53;

PINE BLUFFS    FAIR      28  27  93 W5        30.28F WCI  23

$$




USA.gov is the U.S. government's official web portal to all federal, state and local government web resources and services.